DMC3-FM2

Last updated on Thu Jul 03 2025 00:02:36 GMT+0000 (Coordinated Universal Time)

1 40716U 15032B 25183.61880456 .00000464 00000+0 60346-4 0 9992 2 40716 97.7018 57.9009 0008342 124.0979 236.1029 14.85070050538011
UTC large
Height (km)
Speed (km/s)
/
Latitude / Longitude
Inclination (degrees)
Orbital Period (minutes)
Azimuth
Elevation
Range (km)
Doppler Factor

Next 0 passes for location: London (51.5072 / 0.1276)

Sorry there are no passes over London.